Location: Unspecified
(0.0000°N, 0.0000°E)
Time: 07:32:35
(UTC+00:00)

Vanguard 2 Rocket - Pass Details

Date: 05 October 2023
Orbit: 552 x 3312 km, 32.9° (Epoch: 06 December)

Event Time Altitude Azimuth Distance (km) Brightness Sun altitude
Rises 18:03:58 0° 295° (WNW) 7,004 12.6 -3.9°
Reaches altitude 10° 18:09:19 10° 291° (WNW) 5,702 12.2 -5.2°
Maximum altitude 18:24:37 51° 220° (SW) 2,406 9.4 -9.0°
Drops below altitude 10° 18:33:35 10° 146° (SE) 3,444 9.6 -11.2°
Sets 18:36:02 0° 140° (SE) 4,128 9.9 -11.9°
